Regional Weather Roundup
Issued by NWS

Home | Current Version | Previous Version | Graphics & Text | Print | Product List | Glossary On
Versions: 1 2 3 4 5 6 7 8 9 10 11 12 13 14 15 16 17 18 19 20 21 22 23 24 25 26 27 28 29 30 31 32 33 34 35 36 37 38 39 40 41 42 43 44 45 46 47 48 49 50
000
ASUS45 KTFX 250319
RWRMT
MONTANA HOURLY WEATHER ROUNDUP
NATIONAL WEATHER SERVICE GREAT FALLS MT
819 PM MST SAT JAN 24 2015

NOTE: "FAIR" INDICATES FEW OR NO CLOUDS BELOW 12000 FEET WITH NO
SIGNIFICANT WEATHER AND/OR OBSTRUCTIONS TO VISIBILITY.

* THESE STATIONS ARE NOT UNDER NWS QUALITY CONTROL. THEY DO NOT
   REPORT WEATHER SUCH AS PRECIPITATION OR FOG.

MTZ001>007-043-250400-
WEST OF THE DIVIDE
CITY           SKY/WX    TMP DP  RH WIND       PRES   REMARKS
KALISPELL      CLOUDY    37  37 100 S5        30.22F WCI  33
MISSOULA       CLOUDY    36  36 100 CALM      30.29S
BUTTE          MOCLDY    37  32  82 SW6       30.28R WCI  32
MULLAN PASS    FOG       36  36 100 SW8       30.26S VSB 1/2  WCI  30
* ANACONDA     MOCLDY    41  36  82 S6         N/A
* ESSEX        N/A       34  33  96 E1         N/A
* EUREKA APT   PTCLDY    43  36  76 SE9       30.19F
* HAMILTON APT PTCLDY    48  39  71 S9        30.28S
* LIBBY APT    CLEAR     36  34  92 CALM      30.24F
* LINCOLN      N/A       42  34  73 S4G11      N/A
* LOOKOUT PASS N/A       39  39 100 SW3        N/A
* POLSON       N/A       39  39 100 SE2        N/A
* RONAN APT    CLOUDY    36  36 100 N/A        N/A
* SEELEY LAKE  N/A       35  34  96 NE2        N/A
* THOMP F APT  PTCLDY    21  18  88 N2         N/A
$$

MTZ008-052>055-250400-
SOUTHWEST MONTANA
CITY           SKY/WX    TMP DP  RH WIND       PRES   REMARKS
BOZEMAN        CLOUDY    39  30  70 S3        30.27R
DILLON         CLOUDY    45  34  65 SW14      30.27S
* W YELLOWSTON PTCLDY    23  20  88 SW3G9      N/A
* THREE FORKS  CLOUDY    39  34  82 N/A        N/A
* BOULDER HILL N/A       40  28  62 SW2        N/A
* MONIDA PASS  N/A       19  19 100 SE16       N/A   WCI   4
* RAYNOLDS PAS N/A       23   5  46 SE25       N/A   WCI   7
* WHITEHALL    N/A       44  32  63 W2G7       N/A
* WISE RIVER   N/A       39  34  82 S2G8       N/A
$$

MTZ009>010-012-014-046-048-049-054-250400-
EAST SLOPES AND CENTRAL MONTANA
CITY           SKY/WX    TMP DP  RH WIND       PRES   REMARKS
CUT BANK       MOCLDY    39  30  70 W10       30.08F WCI  32
GREAT FALLS    CLOUDY    43  30  60 SW13      30.13F
HELENA         CLOUDY    46  36  68 W15       30.21F
MALMSTROM AFB  CLOUDY    41  34  76 SW10      30.14F
* CONRAD       PTCLDY    45  34  65 SW14       N/A
* DEARBORN     N/A       45  32  60 SW2        N/A
* EAST GLACIER N/A       41  32  70 W17G25     N/A
* MONARCH      N/A       41  25  53 W19G25     N/A
* PENDROY      N/A       37  27  67 W2         N/A
* ROGERS PASS  N/A       40  34  79 SE9G17     N/A   WCI  34
* SWEET GRASS  N/A       41  29  62 W14G19     N/A
* WHITE SULPH  N/A       38  30  73 E1G6       N/A
$$

MTZ011-013-016-021-035-040-045-047-050-051-250400-
NORTH CENTRAL MONTANA
CITY           SKY/WX    TMP DP  RH WIND       PRES   REMARKS
HAVRE          PTCLDY    34  30  85 S9        30.11F WCI  27
LEWISTOWN      PTCLDY    36  28  73 S8        30.13S WCI  30
* N BAR RANCH  CLEAR     39  28  65 NW14      30.12S WCI  31
* CHINOOK      PTCLDY    34  28  79 W7        30.10F WCI  28
* CHESTER      N/A       38  28  67 N/A        N/A
* DENTON       N/A       40  30  68 W15        N/A   WCI  32
* GEYSER       N/A       37  29  73 W1         N/A
* JUDITH GAP   N/A       34  30  85 S3         N/A
* LOMA         N/A       40  32  73 W2         N/A
$$

MTZ017>020-022>027-061-062-250400-
NORTHEAST MONTANA
CITY           SKY/WX    TMP DP  RH WIND       PRES   REMARKS
GLASGOW        CLEAR     36  28  73 NW10      30.01R WCI  29
GLENDIVE       CLEAR     37  30  76 W17G25    29.99R WCI  27
JORDAN         CLEAR     36  28  73 W9        30.06R WCI  29
SIDNEY         CLEAR     37  30  76 W15       29.95R WCI  28
WOLF POINT     CLEAR     37  30  76 W15       29.98R WCI  28
* BEAVER HILL  N/A       36  31  82 W18G23     N/A   WCI  26
* CIRCLE       N/A       37  32  82 W7         N/A   WCI  32
* LINDSAY DVD  N/A       36  31  82 W24G29     N/A   WCI  24
* NAVAJO       N/A       36  30  79 NW26G35    N/A   WCI  24
* PLENTYWOOD A CLEAR     37  30  76 NW25G36   29.87R WCI  25
* POPLAR APT   CLEAR     37  30  76 W12       29.95S WCI  29
* SACO         N/A       32  28  85 W10        N/A   WCI  24
$$

MTZ028>042-056>058-250400-
SOUTHCENTRAL AND SOUTHEAST MONTANA
CITY           SKY/WX    TMP DP  RH WIND       PRES   REMARKS
BAKER          CLEAR     36  30  79 NW18      29.97R WCI  26
BILLINGS       MOCLDY    43  30  60 W12       30.14R
LIVINGSTON     PTCLDY    46  28  50 W22G30    30.19S
MILES CITY     PTCLDY    37  28  70 NW16      30.04R WCI  28
* BIG TIMBER A PTCLDY    46  28  50 SW31G41   30.14F
* FORSYTH APT  CLEAR     37  30  76 W12       30.10R WCI  29
* LAUREL APT   PTCLDY    43  21  42 W8         N/A
* ROUNDUP APT  CLEAR     45  25  45 N/A        N/A
* ALZADA       N/A       36  29  76 W13        N/A   WCI  27
* HYSHAM       N/A       39  24  55 W1         N/A
* LAME DEER    N/A       37  25  62 NW10G16    N/A   WCI  30
* REED POINT   N/A       47  31  54 W9G17      N/A
* ROSCOE HILL  N/A       44  18  35 W4G17      N/A
$$

REGIONAL REPORTS...DAKOTAS
CITY           SKY/WX    TMP DP  RH WIND       PRES   REMARKS
WILLISTON      CLOUDY    37  30  76 NW16      29.89R WCI  28
DICKINSON      CLOUDY    37  32  82 NW20G32   29.85R WCI  27
BEACH          CLEAR     36  32  85 NW17      29.95R WCI  26
CROSBY         CLOUDY    36  36 100 NW17G25   29.84R WCI  26
TIOGA          N/A       36  36 100 NW16G23   29.85R WCI  26
WATFORD CITY   CLOUDY    37  32  82 NW16G22   29.88R WCI  28
BISMARCK       LGT SNOW  34  30  85 W7        29.80R WCI  28
GRAND FORKS    CLOUDY    25  19  78 N13       29.81R WCI  13
FARGO          LGT SNOW  32  28  85 N14       29.74R WCI  22
BUFFALO SD     CLEAR     39  30  70 NW35G43   29.85S WCI  26
RAPID CITY     MOCLDY    43  27  53 NW37G51   29.93R
$$

REGIONAL REPORTS...WYOMING/IDAHO/WASHINGTON
CITY           SKY/WX    TMP DP  RH WIND       PRES   REMARKS
GILLETTE       PTCLDY    34  30  85 W14       30.08R WCI  24
SHERIDAN       CLOUDY    37  32  82 NE5       30.12S WCI  33
CODY           MOCLDY    43  23  45 W8G17     30.15S
YELLOWSTONE LA PTCLDY    23  19  85 CALM      30.37R
SALMON         CLOUDY    30  25  82 CALM      30.40R
MULLAN PASS    FOG       36  36 100 SW8       30.26S VSB 1/2  WCI  30
SAND POINT     N/A       36  36 100 CALM      30.27S VSB 1/2
SPOKANE        FOG       37  37 100 CALM      30.24F VSB M1/4
$$

REGIONAL REPORTS...ALBERTA
CITY           SKY/WX    TMP DP  RH WIND       PRES   REMARKS
CALGARY        PTCLDY    39  21  48 S12       29.99S WCI  32
LETHBRIDGE     MOCLDY    46  30  54 W22G29    30.03F
MEDICINE HAT   PTCLDY    34  28  79 S3        30.07F
EDMONTON       CLOUDY    32  27  82 S8        29.91F WCI  25
WATERTON GATE  N/A       45  30  56 SW13G21    N/A
CARDSTON       N/A       45  32  60 W9         N/A
MILK RIVER     N/A       36  32  85 NW8        N/A   WCI  30
$$

REGIONAL REPORTS...SASKATCHEWAN
CITY           SKY/WX    TMP DP  RH WIND       PRES   REMARKS
SWIFT CURRENT  CLEAR     32  28  85 W15       29.97R WCI  22
REGINA         MOCLDY    36  32  85 NW22      29.83R WCI  25
VAL MARIE      N/A       32  28  85 W9         N/A   WCI  24
ASSINIBOIA     N/A       36  28  73 W22G28     N/A   WCI  25
CORONACH       N/A       36  30  79 W20G25     N/A   WCI  25

$$




USA.gov is the U.S. government's official web portal to all federal, state and local government web resources and services.